Location: Caltech
(34.1382°N, 118.1253°W)
Time: 05:14:07
(UTC-07:00)

NOSS 3-2 (A) - Visible Passes

Search period start: 01 October 2014 00:00
Search period end: 11 October 2014 00:00
Orbit: 941 x 1267 km, 63.4° (Epoch: 27 September)

Date Brightness Start Highest point End Pass type
(mag) Time Alt. Az. Time Alt. Az. Time Alt. Az.
01 Oct 6.1 05:59:24 10° N 06:04:30 19° NE 06:09:47 10° E visible
02 Oct 6.3 05:15:19 10° N 05:18:28 13° NE 05:21:40 10° ENE visible
03 Oct 5.5 06:18:41 10° NNW 06:25:27 36° NE 06:32:31 10° ESE visible
04 Oct 6.0 05:33:54 10° N 05:39:43 24° NE 05:45:46 10° E visible
05 Oct 6.2 04:49:27 10° N 04:53:47 16° NE 04:58:15 10° ENE visible
06 Oct 6.5 04:06:13 10° NNE 04:07:39 11° NNE 04:09:05 10° NE visible
06 Oct 5.1 05:53:23 10° NNW 06:00:30 46° NE 06:07:57 10° SE visible
06 Oct 5.4 19:44:45 10° SE 19:44:58 11° SE 19:44:58 11° SE visible
06 Oct 5.9 21:32:20 10° SW 21:32:30 11° SW 21:32:30 11° SW visible
07 Oct 5.7 05:08:29 10° NNW 05:14:52 30° NE 05:21:31 10° ESE visible
07 Oct 4.4 20:47:04 10° SSW 20:50:26 35° SSW 20:50:26 35° SSW visible
08 Oct 6.1 04:23:50 10° N 04:29:03 20° NE 04:34:27 10° E visible
08 Oct 4.1 06:13:21 10° NNW 06:20:55 88° ENE 06:28:49 10° SSE visible
08 Oct 3.8 20:02:22 10° S 20:08:07 41° ESE 20:08:26 41° ESE visible
08 Oct 5.5 21:53:32 10° WSW 21:55:59 21° W 21:55:59 21° W visible
09 Oct 6.4 03:39:40 10° N 03:43:02 13° NE 03:46:27 10° ENE visible
09 Oct 4.6 05:28:09 10° NNW 05:35:31 58° NE 05:43:13 10° SE visible
09 Oct 4.5 19:18:25 10° SSE 19:23:08 23° ESE 19:26:27 16° ENE visible
09 Oct 4.2 21:07:26 10° SW 21:13:28 51° NW 21:13:59 49° NW visible
10 Oct 5.2 04:43:09 10° NNW 04:49:58 38° NE 04:57:06 10° ESE visible
10 Oct 3.4 20:21:53 10° SSW 20:28:05 85° WNW 20:31:54 27° NNE visible
10 Oct 5.9 22:16:14 10° WNW 22:19:26 16° NW 22:19:26 16° NW visible
